Location: Gloden
(48.4833°N, 15.3167°E)
Time: 00:34:16
(UTC+00:00)

ITUPSAT 1 - Pass Details

Date: 14 May 2021
Orbit: 700 x 713 km, 98.6° (Epoch: 24 June)

Event Time Altitude Azimuth Distance (km) Brightness Sun altitude
Rises 19:15:08 0° 7° (N) 3,118 ? -6.8°
Reaches altitude 10° 19:17:35 10° 358° (N) 2,192 ? -7.1°
Maximum altitude 19:21:49 32° 296° (WNW) 1,198 ? -7.6°
Drops below altitude 10° 19:26:02 10° 233° (SW) 2,171 ? -8.2°
Sets 19:28:27 0° 224° (SW) 3,083 ? -8.5°
